AirNav   Air Wisconsin pilot careers
 
 1285 users online  

TN42 Valley View Assisted Living Heliport
Whitwell, Tennessee, USA

GOING TO WHITWELL?


FAA INFORMATION EFFECTIVE 01 FEBRUARY 2018

Location

FAA Identifier: TN42
Lat/Long: 35-12-10.2670N / 085-31-09.8750W
35-12.171117N / 085-31.164583W
35.2028519 / -85.5194097
(estimated)
Elevation: 750 ft. / 229 m (estimated)
Variation: 01W (1985)
From city: 1 mile E of WHITWELL, TN
Time zone: UTC -6 (UTC -5 during Daylight Saving Time)
Zip code: 37397

Heliport Operations

Heliport use: Private use, MEDICAL USE
Activation date: 04/1990
Control tower: no
ARTCC: ATLANTA CENTER
FSS: NASHVILLE FLIGHT SERVICE STATION
Attendance: UNATNDD
Segmented circle: no
Lights: FOR PERIMETER LGTS CALL 615-658-2101.

Heliport Communications

WX ASOS at CHA (18 nm SE): PHONE 423-499-5973

Nearby radio navigation aids

VOR radial/distance  VOR name  Freq  Var
GQOr308/23.1CHOO CHOO VORTAC115.8001E

 
NDB name  Hdg/Dist  Freq  Var  ID
DAISY279/17.934102WCQN -.-. --.- -.
BOILING FORK090/26.926303WBGF -... --. ..-.
MARK ANTON244/33.339404WDTE -.. - .
BURWI117/38.633203WULH ..- .-.. ....

Heliport Services

Runway Information

Helipad H1

Dimensions: 24 x 24 ft. / 7 x 7 m
Surface: concrete
Runway edge lights: PERIMETER LIGHTS.
Traffic pattern: leftleft

Heliport Ownership and Management from official FAA records

Ownership: Privately-owned
Owner: VALLEY VIEW OF WHITWELL
101 NORTH MAPLE ST
WHITWELL, TN 37397
Phone 423-658-0100
Manager: DARLENE AUSTIN
101 NORTH MAPLE ST
WHITWELL, TN 37397
Phone 423-658-0100

Instrument Procedures

There are no published instrument procedures at TN42.

Some nearby airports with instrument procedures:

KAPT - Marion County Airport-Brown Field (9 nm S)
KCHA - Lovell Field Airport (18 nm SE)
KBGF - Winchester Municipal Airport (27 nm W)
9A5 - Barwick Lafayette Airport (33 nm S)
2A0 - Mark Anton Airport (33 nm NE)
 
Loc | Ops | Rwys | IFR | FBO | Links
Com | Nav | Svcs | Stats | Notes

AirNav Hotels Sweepstakes
 
Area around TN42 (Valley View Assisted Living Heliport)
 
Road maps at: MapQuest Bing Google
 
Aerial photo
No photo
 
Sectional chart

 
Airport distance calculator
Flying to Valley View Assisted Living Heliport? Find the distance to fly.

From to TN42

Sunrise and sunset
Times for 20-Feb-2018
 Local
(UTC-6)
 Zulu
(UTC)
Morning civil twilight05:5811:58
Sunrise06:2412:24
Sunset17:2823:28
Evening civil twilight17:5423:54

Current date and time
Zulu (UTC)  20-Feb-2018 23:51:51
Local (UTC-6)  20-Feb-2018 17:51:51
 
METAR
KCHA 
19nm SE 
202253Z 14008KT 10SM FEW039 BKN080 23/16 A3028 RMK AO2 SLP249 T02280156
KBGF 
27nm W 
202335Z AUTO 16010KT 10SM OVC075 22/16 A3024 RMK
K9A5 
33nm S 
202335Z AUTO 00000KT 10SM SCT044 SCT060 OVC085 21/15 A3029 RMK AO2 T02070152
KRNC 
34nm NW 
202335Z AUTO 19006KT 10SM SCT080 22/15 A3023 RMK A01
KDNN 
35nm SE 
202335Z AUTO 13008KT 10SM SCT048 SCT055 OVC080 21/17 A3032 RMK AO2
KRZR 
35nm E 
202335Z AUTO 19006KT 10SM OVC075 23/16 A3028 RMK A01
KTHA 
37nm W 
202335Z AUTO 16007KT 10SM FEW055 BKN075 22/16 A3022 RMK A01
TAF
KCHA 
19nm SE 
201720Z 2018/2118 18007KT P6SM SCT015 BKN035 FM202200 16007KT P6SM OVC050 FM210300 18006KT P6SM OVC020 FM210600 18005KT P6SM VCSH OVC020
NOTAMs
Click for the latest NOTAMs
NOTAMs are issued by the DoD/FAA and will open in a separate window not controlled by AirNav.

 

 
 

Would you like to see your business listed on this page?

 If your business provides an interesting product or service to pilots, flight crews, aircraft, or users of the Valley View Assisted Living Heliport, you should consider listing it here.  To start the listing process, click on the button below
 
Add a business
 

Other Pages about Valley View Assisted Living Heliport

Update a link
 
Copyright © AirNav, LLC. All rights reserved. Privacy Policy  Contact